Weather reports worldwide

Advertisment
Lille, France (7015): temperature & dewpoint: 20.05.2019 02:00:00 - 26.05.2019 02:00:00 (CEST)Lille, France (7015): temperature 5cm: 20.05.2019 02:00:00 - 26.05.2019 02:00:00 (CEST)Lille, France (7015): temperature -20cm & temperature -100cm: 20.05.2019 02:00:00 - 26.05.2019 02:00:00 (CEST)Lille, France (7015): wind speed & gusts: 20.05.2019 02:00:00 - 26.05.2019 02:00:00 (CEST)Lille, France (7015): wind direction: 20.05.2019 02:00:00 - 26.05.2019 02:00:00 (CEST)Lille, France (7015): reduced air pressure: 20.05.2019 02:00:00 - 26.05.2019 02:00:00 (CEST)Lille, France (7015): visibility: 20.05.2019 02:00:00 - 26.05.2019 02:00:00 (CEST)Lille, France (7015): precipitation: 20.05.2019 02:00:00 - 26.05.2019 02:00:00 (CEST)
Date & Time tt [°C] td [°C] tt 5cm [°C] tt -20cm [°C] tt -100cm [°C] ff [km/h] ff [kn] fx [km/h] fx [kn] dd ppp [hPa] vv [km] rr [mm]
26.05.2019 02:00:00 - - - - - - - - - - - - -
26.05.2019 01:00:00 12,9 9,9 11,7 16,6 13,0 5 3 13 7 SSW 1018,4 13 0,0
26.05.2019 00:00:00 13,8 10,0 12,7 17,1 13,0 7 4 11 6 SW 1018,8 25 0,0
25.05.2019 23:00:00 14,6 10,0 12,5 17,6 13,0 8 4 16 8 WSW 1018,8 33 0,0
25.05.2019 22:00:00 16,1 10,4 15,0 18,0 13,0 13 7 23 13 W 1018,5 38 0,0
25.05.2019 21:00:00 17,5 11,3 17,4 18,4 13,0 11 6 19 10 W 1018,1 38 0,0
25.05.2019 20:00:00 18,0 8,0 18,1 18,9 13,0 14 8 27 15 NW 1018,0 28 0,0
25.05.2019 19:00:00 19,4 7,2 22,5 18,9 13,0 15 8 39 21 NW 1017,8 20 0,0
25.05.2019 18:00:00 19,7 8,1 20,9 18,7 12,9 18 10 36 20 NW 1017,7 20 0,0
25.05.2019 17:00:00 19,0 9,7 20,7 18,4 12,9 21 11 37 20 NW 1017,9 11 0,0
25.05.2019 16:00:00 19,4 10,1 22,0 17,8 12,9 20 11 37 20 NW 1018,0 10 0,0
25.05.2019 15:00:00 18,6 11,2 - - - 16 9 35 19 NW 1018,5 9 0,0
25.05.2019 14:00:00 17,8 10,7 20,3 16,6 12,9 22 12 34 18 W 1018,7 9 0,0
25.05.2019 13:00:00 18,3 12,3 16,3 16,0 12,9 18 10 34 18 W 1018,6 6 0,2
25.05.2019 12:00:00 17,5 11,7 19,4 15,5 12,9 16 8 24 13 W 1018,5 10 0,0
25.05.2019 11:00:00 16,5 12,8 16,7 15,1 12,9 14 8 28 15 WNW 1018,5 6 0,0
25.05.2019 10:00:00 14,5 11,8 14,5 14,8 12,9 12 6 18 10 W 1018,3 6 0,0
25.05.2019 09:00:00 13,4 11,6 13,4 14,7 12,9 8 4 16 9 W 1018,0 6 0,0
25.05.2019 08:00:00 12,6 10,1 12,0 14,7 12,8 6 3 9 5 W 1017,5 8 0,0
25.05.2019 07:00:00 11,1 9,0 7,2 14,8 12,9 3 1 5 3 S 1017,5 11 0,0
25.05.2019 06:00:00 10,5 8,8 6,3 15,1 12,8 3 2 7 4 WSW 1017,3 13 0,0
25.05.2019 05:00:00 10,9 8,1 8,1 15,4 12,8 4 2 8 5 S 1017,1 17 0,0
25.05.2019 04:00:00 11,9 8,9 7,5 15,7 12,8 3 2 8 4 WSW 1017,3 18 0,0
25.05.2019 03:00:00 11,1 8,3 7,1 16,1 12,8 0 0 4 2 N 1017,4 17 0,0
25.05.2019 02:00:00 12,2 8,5 7,9 16,5 12,8 2 1 5 3 S 1017,5 20 0,0
25.05.2019 01:00:00 13,8 8,4 8,7 17,0 12,8 2 1 13 7 S 1017,8 16 0,0
25.05.2019 00:00:00 14,4 8,6 9,9 17,6 12,8 7 4 13 7 N 1017,7 30 0,0
24.05.2019 23:00:00 15,5 8,0 10,0 18,2 12,8 6 3 15 8 NNW 1017,5 35 0,0
24.05.2019 22:00:00 16,6 8,0 13,6 18,9 12,8 11 6 24 13 N 1017,0 40 0,0
24.05.2019 21:00:00 18,4 7,8 18,7 19,4 12,7 17 9 32 18 NNW 1016,7 34 0,0
24.05.2019 20:00:00 19,7 8,1 22,6 19,8 12,7 17 9 36 20 NNW 1016,2 16 0,0
24.05.2019 19:00:00 20,2 7,5 25,0 20,0 12,7 24 13 37 20 NW 1016,1 16 0,0
24.05.2019 18:00:00 20,8 7,8 26,6 19,8 12,7 21 11 35 19 NNW 1016,1 16 0,0
24.05.2019 17:00:00 21,3 7,9 28,1 19,5 12,7 19 11 36 20 NW 1016,2 13 0,0
24.05.2019 16:00:00 21,8 9,7 26,0 18,9 12,7 19 11 36 20 NW 1016,3 10 0,0
24.05.2019 15:00:00 21,4 11,1 24,1 18,3 12,7 18 10 31 17 NW 1016,2 7 0,0
24.05.2019 14:00:00 20,8 12,2 25,2 17,4 12,7 13 7 29 16 W 1016,4 7 0,0
24.05.2019 13:00:00 19,4 9,8 25,1 16,4 12,7 11 6 25 13 W 1016,4 12 0,0
24.05.2019 12:00:00 18,2 11,3 23,1 15,6 12,7 13 7 22 12 W 1016,6 13 0,0
24.05.2019 11:00:00 16,7 9,6 21,0 14,9 12,7 8 4 19 10 WNW 1016,5 12 0,0
24.05.2019 10:00:00 14,9 9,5 18,7 14,5 12,6 9 5 19 11 WSW 1016,4 7 0,0
24.05.2019 09:00:00 13,2 8,9 12,7 14,5 12,6 8 4 17 9 WSW 1016,5 7 0,0
24.05.2019 08:00:00 12,7 7,6 13,2 14,6 12,7 8 4 13 7 SW 1016,3 14 0,0
24.05.2019 07:00:00 13,1 6,7 12,5 14,7 12,6 6 3 11 6 SW 1016,2 18 0,0
24.05.2019 06:00:00 12,7 8,4 12,0 14,9 12,7 5 3 13 7 W 1015,9 17 0,0
24.05.2019 05:00:00 13,0 8,9 12,2 15,2 12,6 10 6 16 9 W 1015,8 15 0,0
24.05.2019 04:00:00 13,5 8,5 12,4 15,4 12,6 10 5 16 9 W 1015,7 19 0,0
24.05.2019 03:00:00 13,9 9,9 11,8 15,6 12,6 9 5 16 9 W 1015,8 18 0,0
24.05.2019 02:00:00 13,7 9,5 11,0 16,0 12,6 10 6 15 8 W 1015,8 16 0,0
24.05.2019 01:00:00 16,2 9,6 14,0 16,4 12,6 16 9 21 12 WSW 1015,9 18 0,0
24.05.2019 00:00:00 15,9 10,2 13,4 16,8 12,6 7 4 11 6 W 1016,2 22 0,0
23.05.2019 23:00:00 17,0 9,4 13,2 17,2 12,6 2 1 5 3 SE 1016,2 31 0,0
23.05.2019 22:00:00 18,9 9,9 14,4 17,6 12,6 5 3 9 5 S 1016,2 24 0,0
23.05.2019 21:00:00 20,6 9,2 19,4 18,0 12,6 8 5 9 5 WSW 1016,0 38 0,0
23.05.2019 20:00:00 20,8 9,4 20,8 18,3 12,6 7 4 13 7 SSE 1016,0 34 0,0
23.05.2019 19:00:00 21,5 9,1 22,2 18,6 12,6 9 5 15 8 SSE 1016,1 32 0,0
23.05.2019 18:00:00 22,2 8,0 23,3 18,6 12,6 7 4 20 11 S 1016,3 37 0,0
23.05.2019 17:00:00 21,6 8,5 23,1 18,3 12,5 13 7 24 13 SSE 1016,7 28 0,0
23.05.2019 16:00:00 22,7 8,0 24,1 17,7 12,5 12 7 28 15 SSW 1017,0 20 0,0
23.05.2019 15:00:00 22,2 7,6 25,0 16,9 12,5 9 5 24 13 SW 1017,5 29 0,0
23.05.2019 14:00:00 21,1 7,3 24,4 16,1 12,5 10 6 25 13 WSW 1017,9 24 0,0
23.05.2019 13:00:00 20,7 6,2 23,7 15,2 12,5 13 7 27 15 WSW 1018,4 28 0,0
23.05.2019 12:00:00 20,1 6,4 24,3 14,4 12,5 12 6 22 12 WSW 1018,6 36 0,0
23.05.2019 11:00:00 18,7 5,2 21,7 13,6 12,5 9 5 22 12 SSW 1018,9 27 0,0
23.05.2019 10:00:00 17,2 6,7 21,1 13,0 12,5 9 5 16 9 SSW 1019,0 21 0,0
23.05.2019 09:00:00 15,0 8,5 17,5 12,7 12,5 4 2 9 5 SW 1019,0 16 0,0
23.05.2019 08:00:00 11,8 8,3 11,5 12,7 12,6 3 2 5 3 SSE 1019,2 9 0,0
23.05.2019 07:00:00 9,1 6,5 4,6 12,9 12,5 3 1 5 3 SSE 1018,9 14 0,0
23.05.2019 06:00:00 8,2 6,5 3,9 13,2 12,5 0 0 8 5 N 1018,8 16 0,0
23.05.2019 05:00:00 8,6 6,2 5,0 13,5 12,5 3 1 5 3 E 1018,9 15 0,0
23.05.2019 04:00:00 9,5 5,9 4,5 13,9 12,5 4 2 5 3 E 1019,0 22 0,0
23.05.2019 03:00:00 10,3 6,3 5,4 14,3 12,5 3 1 6 3 WNW 1019,3 26 0,0
23.05.2019 02:00:00 10,2 6,3 6,1 14,7 12,5 3 2 5 3 WSW 1019,8 27 0,0
23.05.2019 01:00:00 11,6 6,7 7,5 15,2 12,5 0 0 4 2 N 1019,8 28 0,0
23.05.2019 00:00:00 13,1 6,4 10,8 15,6 12,5 0 0 6 3 N 1020,0 33 0,0
22.05.2019 23:00:00 14,5 6,1 8,7 16,1 12,5 6 3 10 5 E 1020,1 38 0,0
22.05.2019 22:00:00 15,8 5,7 9,9 16,6 12,5 7 4 9 5 ENE 1020,0 42 0,0
22.05.2019 21:00:00 18,2 5,7 19,0 16,9 12,5 7 4 15 8 NNE 1019,7 44 0,0
22.05.2019 20:00:00 19,2 5,6 20,2 17,1 12,5 6 4 17 9 NW 1019,8 39 0,0
22.05.2019 19:00:00 19,1 6,2 21,5 17,2 12,5 9 5 18 10 N 1019,7 39 0,0
22.05.2019 18:00:00 20,2 6,5 23,1 17,0 12,5 8 4 21 11 WSW 1019,6 37 0,0
22.05.2019 17:00:00 20,2 6,2 23,3 16,7 12,5 10 6 24 13 W 1019,9 35 0,0
22.05.2019 16:00:00 19,9 7,6 24,0 16,3 12,5 9 5 33 18 WNW 1020,0 21 0,0
22.05.2019 15:00:00 19,5 7,2 19,5 16,0 12,5 9 5 49 26 WNW 1020,3 27 0,0
22.05.2019 14:00:00 19,3 8,3 21,3 15,5 12,4 8 5 30 16 NNW 1020,4 26 0,0
22.05.2019 13:00:00 19,0 8,3 21,4 14,6 12,5 14 8 29 16 W 1020,5 23 0,0
22.05.2019 12:00:00 17,8 9,2 21,6 13,8 12,5 7 4 21 11 W 1020,6 14 0,0
22.05.2019 11:00:00 16,7 10,1 20,4 12,9 12,5 11 6 23 13 W 1020,5 14 0,0
22.05.2019 10:00:00 15,0 10,2 16,0 12,3 12,5 9 5 16 9 SW 1020,4 7 0,0
22.05.2019 09:00:00 12,8 9,8 13,2 11,9 12,4 4 2 9 5 SSW 1020,4 8 0,0
22.05.2019 08:00:00 10,3 8,9 8,9 11,9 12,4 3 2 8 4 E 1020,0 5 0,0
22.05.2019 07:00:00 8,1 7,5 3,3 12,1 12,5 4 2 5 3 E 1020,2 5 0,0
22.05.2019 06:00:00 7,5 6,8 2,7 12,4 12,5 0 0 9 5 N 1020,0 4,9 0,0
22.05.2019 05:00:00 7,9 7,1 2,9 12,7 12,5 2 1 5 3 SW 1020,0 6 0,0
22.05.2019 04:00:00 8,0 7,1 3,3 13,0 12,5 4 2 4 2 SSW 1020,1 8 0,0
22.05.2019 03:00:00 8,4 6,7 3,9 13,4 12,5 3 1 9 5 SSW 1019,8 12 0,0
22.05.2019 02:00:00 9,9 7,8 5,6 13,7 12,5 9 5 11 6 WSW 1019,8 10 0,0
22.05.2019 01:00:00 10,5 7,6 6,1 14,1 12,4 3 2 10 5 SSE 1019,7 10 0,0
22.05.2019 00:00:00 11,9 7,8 6,7 14,6 12,5 9 5 12 6 NW 1019,8 12 0,0
21.05.2019 23:00:00 12,5 6,3 6,7 15,1 12,4 5 3 12 7 N 1019,7 19 0,0
21.05.2019 22:00:00 13,9 5,8 11,5 15,7 12,5 7 4 24 13 N 1019,4 46 0,0
21.05.2019 21:00:00 15,9 6,0 15,4 16,2 12,5 17 9 31 17 NNW 1018,8 27 0,0
21.05.2019 20:00:00 17,8 6,6 20,1 16,4 12,5 16 9 33 18 NNW 1018,2 24 0,0
21.05.2019 19:00:00 17,7 6,5 20,8 16,5 12,5 23 12 47 25 NNW 1018,0 19 0,0
21.05.2019 18:00:00 18,1 7,5 22,8 16,4 12,4 21 12 37 20 NNW 1017,9 13 0,0
21.05.2019 17:00:00 18,1 8,4 21,3 16,2 12,4 22 12 39 21 NNW 1017,7 13 0,0
21.05.2019 16:00:00 18,7 8,6 21,0 15,8 12,4 22 12 37 20 NNW 1017,7 12 0,0
21.05.2019 15:00:00 18,6 9,1 20,9 15,2 12,4 25 13 40 21 NW 1017,4 11 0,0
21.05.2019 14:00:00 18,5 9,8 22,7 14,5 12,4 25 14 39 21 NNW 1017,3 12 0,0
21.05.2019 13:00:00 17,1 10,2 21,3 13,8 12,4 22 12 41 22 NW 1017,1 12 0,0
21.05.2019 12:00:00 16,6 11,1 19,8 13,2 12,4 22 12 36 19 NW 1016,9 11 0,0
21.05.2019 11:00:00 15,4 10,8 18,7 12,6 12,4 20 11 36 19 NNW 1016,8 9 0,0
21.05.2019 10:00:00 13,7 10,1 16,0 12,2 12,4 16 9 33 18 NW 1016,5 8 0,0
21.05.2019 09:00:00 11,6 9,8 11,9 12,0 12,4 16 8 29 15 NW 1016,2 6 0,0
21.05.2019 08:00:00 10,7 10,5 10,0 11,9 12,4 16 9 34 19 NNW 1015,8 3,1 0,0
21.05.2019 07:00:00 10,0 9,8 9,6 11,8 12,5 16 9 24 13 NW 1015,4 1,0 0,0
21.05.2019 06:00:00 9,8 9,7 6,5 11,8 12,4 8 5 21 11 NNW 1015,0 0,4 0,0
21.05.2019 05:00:00 7,9 7,5 6,2 12,0 12,4 8 4 14 8 WNW 1014,8 2,3 0,0
21.05.2019 04:00:00 8,2 7,8 6,8 12,3 12,4 11 6 16 9 W 1014,6 2,4 0,2
21.05.2019 03:00:00 8,5 8,1 6,2 12,5 12,4 10 5 16 9 WNW 1014,3 1,9 0,0
21.05.2019 02:00:00 8,2 7,1 6,6 12,8 12,4 11 6 14 8 WNW 1014,4 3,0 0,0
21.05.2019 01:00:00 9,6 8,0 8,6 13,0 12,4 12 6 21 11 WNW 1014,5 7 0,0
21.05.2019 00:00:00 10,0 8,8 8,8 13,4 12,5 12 6 19 10 WNW 1014,5 8 0,0
20.05.2019 23:00:00 10,7 8,5 9,6 13,7 12,4 10 5 23 12 NW 1014,1 10 0,0
20.05.2019 22:00:00 11,9 8,6 10,7 14,0 12,4 13 7 32 18 NNW 1013,6 15 0,0
20.05.2019 21:00:00 13,2 9,1 12,9 14,2 12,4 16 9 36 19 NW 1012,8 17 0,0
20.05.2019 20:00:00 14,3 9,1 15,3 14,3 12,4 22 12 40 21 NW 1012,4 16 0,0
20.05.2019 19:00:00 14,3 9,3 15,4 14,3 12,4 18 10 42 23 NNW 1012,4 20 0,0
20.05.2019 18:00:00 15,3 9,9 17,4 14,0 12,4 27 15 46 25 NW 1012,1 20 0,0
20.05.2019 17:00:00 14,8 9,4 17,4 13,5 12,4 24 13 43 23 NW 1012,1 21 0,0
20.05.2019 16:00:00 14,1 9,9 14,2 13,2 12,4 19 10 32 17 NW 1012,1 17 0,0
20.05.2019 15:00:00 12,5 9,9 13,3 13,0 12,4 18 10 31 17 NNW 1012,0 14 0,0
20.05.2019 14:00:00 12,1 9,8 12,9 12,9 12,4 19 10 29 16 NW 1011,6 11 0,0
20.05.2019 13:00:00 11,5 9,7 12,2 12,8 12,4 21 11 32 18 NW 1011,3 9 0,0
20.05.2019 12:00:00 11,3 9,6 12,0 12,7 12,4 22 12 32 17 NW 1010,7 8 0,0
20.05.2019 11:00:00 10,8 9,6 10,9 12,7 12,4 20 11 30 16 NW 1010,6 8 0,0
20.05.2019 10:00:00 10,5 9,9 10,9 12,7 12,4 16 9 30 16 NW 1010,6 3,3 0,0
20.05.2019 09:00:00 10,5 9,4 10,7 12,6 12,4 16 9 28 15 NW 1010,2 5 0,0
20.05.2019 08:00:00 10,3 9,2 10,3 12,6 12,4 18 10 29 16 NNW 1009,8 5 0,0
20.05.2019 07:00:00 10,2 8,6 10,2 12,8 12,4 19 10 32 17 NW 1009,6 8 0,0
20.05.2019 06:00:00 10,4 8,7 10,3 12,9 12,4 14 8 29 16 NNW 1009,3 6 0,0
20.05.2019 05:00:00 10,4 8,7 10,3 13,0 12,4 19 10 32 17 NNW 1008,9 7 0,0
20.05.2019 04:00:00 10,4 8,8 10,4 13,0 12,4 20 11 34 19 NNW 1008,8 8 0,0
20.05.2019 03:00:00 10,7 9,3 10,7 13,2 12,4 18 10 31 17 NNW 1008,8 5 0,0
20.05.2019 02:00:00 10,8 9,4 10,8 13,3 12,3 13 7 34 18 NNW 1009,0 7 0,0

tt = temperature
td = dewpoint
tt 5cm = temperature 5cm
tt -20cm = temperature -20cm
tt -100cm = temperature -100cm
ff = wind speed
fx = gusts
dd = wind direction
ppp = reduced air pressure
vv = visibility
rr = precipitation

Next stations